Weather in Terenga

Russia / Ulyanovsk Oblast     53°42′58″N   48°21′59″E
temp.,
°C
wind,
m/s
gust,
m/s
humid.,
%
clouds,
%
prec.,
mm/h
press.,
hPa
HPBL,
m
12 april, mon
mon1201:00+5nne3597100 0.0 103198
04:00+5nne4899100 0.0 1032164
07:00+5nne389997 0.0 1033192
10:00+9ene479199 0.0 1034269
13:00+14e467390 0.0 1033513
16:00+16e4669100 0.0 1033563
19:00+13ene3682100 0.0 1033115
22:00+10ene499177 0.0 1034179
13 april, tue
tue1301:00+9e369294 0.0 103592
04:00+8ese229064 0.0 103523
07:00+8ese339057 0.0 103539
10:00+13se467232 0.0 1035346
13:00+16sse465344 0.0 1034759
16:00+17sse46449 0.0 10321082
19:00+14se34575 0.0 103163
22:00+10se335926 0.0 103233
14 april, wed
wed1401:00+8se33625 0.0 103220
04:00+6se22655 0.0 103113
07:00+6ese226646 0.0 103124
10:00+11se46577 0.0 1030327
13:00+15se56525 0.0 1028832
16:00+17se56485 0.0 10261060
19:00+14ese35632 0.0 102596
22:00+11ese22700 0.0 102514
15 april, thu
thu1501:00+9ese22785 0.0 102410
04:00+8ese11850 0.0 102310
07:00+8se22905 0.0 102317
10:00+13se23660 0.0 1022364
13:00+16sse33520 0.0 1020992
16:00+17sse33420 0.0 10191384
19:00+15s11520 0.0 101811
22:00+12e11603 0.0 101810
16 april, fri
fri1601:00+10ese11661 0.0 101710
04:00+9ssw11690 0.0 101610
07:00+9w11683 0.0 101610
10:00+14w225222 0.0 1015314
13:00+18wnw3441100 0.0 10141498
16:00+18nw463720 0.0 10132198
19:00+16nnw36525 0.0 1013137
22:00+8nne914796 0.0 1016536